FW6176 Weather Reports


Display with metric or nautical units.
time (UTC)temp
F
wind
direction
speed
MPH
gust
MPH
rain 1hr
in
rain 24hr
in
rain mn
in
humidity
%
barometer
mb
20260902000023 96 287 0.0 3.0 0.00 0.00 0.00 45 1013.3
20260901234523 97 126 0.0 5.0 0.00 0.00 0.00 42 1013.4
20260901233026 98 139 0.0 1.0 0.00 0.00 0.00 41 1013.4
20260901231526 98 87 0.0 1.0 0.00 0.00 0.00 40 1013.4
20260901230022 98 113 0.0 3.0 0.00 0.00 0.00 41 1013.4
20260901224521 97 128 0.0 0.0 0.00 0.00 0.00 41 1013.5
20260901223020 98 128 0.0 0.0 0.00 0.00 0.00 40 1013.4
20260901221519 98 128 0.0 4.0 0.00 0.00 0.00 40 1013.4
20260901220018 99 109 0.0 3.0 0.00 0.00 0.00 37 1013.4
20260901214517 102 118 0.0 1.0 0.00 0.00 0.00 36 1013.4
20260901213025 102 118 0.0 2.0 0.00 0.00 0.00 35 1013.3
20260901211516 102 113 0.0 1.0 0.00 0.00 0.00 34 1013.4
20260901210014 101 75 0.0 2.0 0.00 0.00 0.00 33 1013.6
20260901204516 101 279 0.0 2.0 0.00 0.00 0.00 36 1013.8
20260901203010 100 230 0.0 2.0 0.00 0.00 0.00 37 1014.0
20260901201509 102 253 0.0 3.0 0.00 0.00 0.00 39 1014.1
20260901200009 101 234 0.0 4.0 0.00 0.00 0.00 36 1014.3
20260901194507 101 293 0.0 3.0 0.00 0.00 0.00 37 1014.3
20260901193002 101 285 0.0 2.0 0.00 0.00 0.00 38 1014.6
20260901191504 101 278 0.0 2.0 0.00 0.00 0.00 38 1014.8
20260901190059 101 120 0.0 3.0 0.00 0.00 0.00 40 1014.9
20260901184603 100 125 0.0 4.0 0.00 0.00 0.00 42 1015.1
20260901183116 99 238 0.0 3.0 0.00 0.00 0.00 42 1015.3
20260901181553 99 187 0.0 3.0 0.00 0.00 0.00 44 1015.4
20260901180051 99 94 0.0 2.0 0.00 0.00 0.00 45 1015.7
20260901174547 98 248 0.0 1.0 0.00 0.00 0.00 47 1015.9
20260901173052 97 238 1.0 3.0 0.00 0.00 0.00 47 1016.0
20260901171551 96 341 0.0 2.0 0.00 0.00 0.00 48 1016.1
20260901170051 95 275 0.0 4.0 0.00 0.00 0.00 52 1016.2
20260901164538 95 307 0.0 5.0 0.00 0.00 0.00 49 1016.3
20260901163054 95 212 0.0 3.0 0.00 0.00 0.00 52 1016.5
20260901161536 94 295 1.0 5.0 0.00 0.00 0.00 51 1016.4
20260901160038 94 301 0.0 4.0 0.00 0.00 0.00 51 1016.6
20260901154531 94 342 0.0 4.0 0.00 0.00 0.00 51 1016.6
20260901153029 93 127 0.0 3.0 0.00 0.00 0.00 54 1016.7
20260901151525 93 233 0.0 2.0 0.00 0.00 0.00 54 1016.5
20260901150021 92 272 0.0 2.0 0.00 0.00 0.00 56 1016.6
20260901144519 91 229 0.0 2.0 0.00 0.00 0.00 55 1016.5
20260901143018 90 96 0.0 1.0 0.00 0.00 0.00 56 1016.8
20260901141518 89 257 0.0 2.0 0.00 0.00 0.00 58 1016.6
20260901140012 88 276 1.0 6.0 0.00 0.00 0.00 59 1016.7
20260901134511 87 237 0.0 2.0 0.00 0.00 0.00 60 1016.7
20260901133006 85 46 0.0 2.0 0.00 0.00 0.00 63 1016.8
20260901131504 83 266 0.0 1.0 0.00 0.00 0.00 66 1016.9
20260901130007 82 89 0.0 1.0 0.00 0.00 0.00 68 1016.8
20260901124502 81 137 0.0 1.0 0.00 0.00 0.00 69 1016.7
20260901123001 81 108 0.0 0.0 0.00 0.00 0.00 70 1016.5
20260901121605 80 108 0.0 1.0 0.00 0.00 0.00 72 1016.4
20260901120108 78 94 0.0 0.0 0.00 0.00 0.00 74 1016.3
20260901114602 77 94 0.0 0.0 0.00 0.00 0.00 74 1016.1
20260901113055 77 96 0.0 1.0 0.00 0.00 0.00 74 1015.8
20260901111558 77 53 0.0 1.0 0.00 0.00 0.00 74 1015.8
20260901110053 77 53 0.0 0.0 0.00 0.00 0.00 74 1015.7
20260901104552 77 53 0.0 0.0 0.00 0.00 0.00 74 1015.6
20260901103056 78 53 0.0 0.0 0.00 0.00 0.00 73 1015.6
20260901101552 78 53 0.0 0.0 0.00 0.00 0.00 72 1015.5
20260901100049 79 53 0.0 0.0 0.00 0.00 0.00 70 1015.4
20260901094541 80 13 0.0 1.0 0.00 0.00 0.00 69 1015.5
20260901093039 80 13 0.0 0.0 0.00 0.00 0.00 68 1015.4
20260901091536 81 13 0.0 1.0 0.00 0.00 0.00 68 1015.2
20260901090034 81 72 0.0 1.0 0.00 0.00 0.00 67 1015.1
20260901084534 81 153 0.0 1.0 0.00 0.00 0.00 67 1014.9
20260901083033 81 98 0.0 0.0 0.00 0.00 0.00 67 1014.7
20260901081533 81 100 0.0 0.0 0.00 0.00 0.00 67 1014.7
20260901080036 81 100 0.0 0.0 0.00 0.00 0.00 67 1014.7
20260901074529 82 100 0.0 1.0 0.00 0.00 0.00 66 1014.8
20260901073041 82 99 0.0 0.0 0.00 0.00 0.00 66 1014.7
20260901071526 83 122 0.0 2.0 0.00 0.00 0.00 65 1014.6
20260901070025 83 110 0.0 3.0 0.00 0.00 0.00 65 1014.6
20260901064524 83 79 0.0 2.0 0.00 0.00 0.00 64 1014.7
20260901063025 83 148 0.0 2.0 0.00 0.00 0.00 64 1014.7
20260901061521 84 97 0.0 2.0 0.00 0.00 0.00 64 1014.8
20260901060036 84 141 0.0 2.0 0.00 0.00 0.00 64 1014.7
20260901054519 84 135 0.0 1.0 0.00 0.00 0.00 63 1014.7
20260901053017 85 145 0.0 1.0 0.00 0.00 0.00 62 1014.7
20260901051514 85 141 0.0 2.0 0.00 0.00 0.00 61 1014.7
20260901050012 85 131 0.0 2.0 0.00 0.00 0.00 61 1014.6
20260901044511 86 134 0.0 4.0 0.00 0.00 0.00 60 1014.7
20260901043012 86 96 0.0 3.0 0.00 0.00 0.00 59 1014.7
20260901041510 86 135 0.0 4.0 0.00 0.00 0.00 58 1014.7
20260901040010 87 91 0.0 4.0 0.00 0.00 0.00 56 1014.8
20260901033007 88 8 0.0 5.0 0.00 0.00 0.00 55 1014.6
20260901031505 88 126 0.0 2.0 0.00 0.00 0.00 57 1014.5
20260901030005 88 134 0.0 6.0 0.00 0.00 0.00 57 1014.5
20260901024505 88 130 0.0 1.0 0.00 0.00 0.00 57 1014.6
20260901023004 89 132 0.0 2.0 0.00 0.00 0.00 56 1014.3
20260901021507 89 196 0.0 5.0 0.00 0.00 0.00 55 1014.1
20260901020003 89 122 0.0 3.0 0.00 0.00 0.00 54 1014.0
20260901014503 89 117 0.0 1.0 0.00 0.00 0.00 52 1013.9
20260901013001 89 144 0.0 0.0 0.00 0.00 0.00 52 1013.7
20260901011502 89 144 0.0 0.0 0.00 0.00 0.00 53 1013.7
20260901010002 90 144 0.0 0.0 0.00 0.00 0.00 51 1013.4
20260901004501 90 144 0.0 0.0 0.00 0.00 0.00 50 1013.4
20260901003106 92 144 0.0 0.0 0.00 0.00 0.00 47 1013.3
20260901001600 93 144 0.0 0.0 0.00 0.00 0.00 44 1013.4